Location: Newark
(45.7425°N, 0.7617°W)
Time: 11:42:14
(UTC+00:00)

Envisat - Visible Passes

Search period start: 20 January 2020 00:00
Search period end: 30 January 2020 00:00
Orbit: 764 x 766 km, 98.1° (Epoch: 20 January)

Date Brightness Start Highest point End Pass type
(mag) Time Alt. Az. Time Alt. Az. Time Alt. Az.
20 Jan 5.2 05:59:37 10° NE 06:04:02 29° E 06:08:23 10° SSE visible
20 Jan 3.2 17:16:14 10° SE 17:21:05 47° ENE 17:25:58 10° N visible
20 Jan 5.4 18:56:19 10° SW 19:00:20 23° W 19:04:23 10° NW visible
21 Jan 6.2 05:24:20 10° ENE 05:26:50 14° E 05:29:19 10° ESE visible
21 Jan 3.0 07:01:23 10° NNE 07:06:29 81° WNW 07:11:33 10° SSW visible
21 Jan 4.0 18:18:25 10° S 18:23:18 49° W 18:28:16 10° NNW visible
22 Jan 4.1 06:24:43 10° NNE 06:29:40 48° E 06:34:33 10° S visible
22 Jan 3.0 17:41:25 10° SSE 17:46:29 80° ENE 17:51:35 10° N visible
22 Jan 6.1 19:23:34 10° WSW 19:26:07 14° W 19:28:42 10° WNW visible
23 Jan 5.5 05:48:36 10° NE 05:52:38 23° E 05:56:38 10° SE visible
23 Jan 5.1 18:44:34 10° SSW 18:48:57 29° W 18:53:22 10° NW visible
24 Jan 6.4 05:14:25 10° ENE 05:15:23 10° E 05:16:21 10° E visible
24 Jan 3.2 06:50:05 10° NNE 06:55:12 82° ESE 07:00:17 10° SSW visible
24 Jan 3.6 18:06:58 10° S 18:11:59 62° W 18:17:03 10° NNW visible
25 Jan 4.6 06:13:33 10° NNE 06:18:19 39° E 06:23:02 10° SSE visible
25 Jan 3.0 17:30:12 10° SSE 17:35:13 64° ENE 17:40:15 10° N visible
25 Jan 5.9 19:11:22 10° SW 19:14:42 17° W 19:18:02 10° NW visible
26 Jan 5.9 05:37:41 10° NE 05:41:13 19° E 05:44:44 10° SE visible
26 Jan 4.7 18:32:55 10° SSW 18:37:35 36° W 18:42:16 10° NNW visible
27 Jan 3.5 06:38:49 10° NNE 06:43:54 66° ESE 06:48:56 10° S visible
27 Jan 3.2 17:55:36 10° S 18:00:40 77° WSW 18:05:48 10° NNW visible
28 Jan 5.0 06:02:26 10° NNE 06:06:57 31° E 06:11:26 10° SSE visible
28 Jan 5.6 18:59:25 10° SW 19:03:17 22° W 19:07:10 10° NW visible
29 Jan 6.2 05:26:57 10° NE 05:29:48 15° E 05:32:37 10° ESE visible
29 Jan 4.2 18:21:23 10° S 18:26:13 45° W 18:31:07 10° NNW visible
